FALCON 9 R/B (47307 NORAD) Tracking and Keplerian Element Data

This shows tracking and keplerian element data for the satellite.

Feedback or suggestion? Click here.




ElementValue
Catalog47307
NameFALCON 9 R/B
Epoch Orbit28
Epoch Day28.74405804
Epoch Year2021
RAAN328.467
Inclination17.4596
Eccentricity0.8056944
Argument of Perigee188.4442
Mean Anonmoly135.3383
Mean Motion1.37558267
Decay Rate4.65E-06
L11 47307U 21001B 21028.74405804 .00000465 00000-0 87785-3 0 9993
L22 47307 17.4596 328.4670 8056944 188.4442 135.3383 1.37558267 282

Live tracking and technical data element details for FALCON 9 R/B (NORAD 47307). FALCON 9 R/B can be tracked NOW for your location showing map with azimuth and elevation plus other details from your city location.

Track the satellite on the map from your city or location and see movement details for azimuth, elevation, latitude, longitude, range, height, and movement on the map or in text.







IsCatalogInMostPopularTable: catalog: 47307, numindb: 29
Update: records affected: 1



GetName: 47307 FALCON 9 R/B

Hit Count: updated at: Tue, 13 Apr 2021 03:59:12 GMT